"2010-01-27 00:00:00",1627479,1.176,317.9,5.296,0.97,1.36,100.691,1.062,2.392,39.2,0,109.9,13.47,1.82,279.9
"2010-01-27 00:00:30",1627480,1.085,316.2,5.373,1.112,0.836,100.6834,1.043,2.223,39.32,0,109.9,13.47,1.80,278.2
"2010-01-27 00:01:00",1627481,1.797,314.7,4.654,1.269,2.227,100.66,0.983,2.32,39.66,0,109.9,13.47,1.74,276.7
"2010-01-27 00:01:30",1627482,0.645,297.6,4.607,0.08,0.106,100.6561,0.973,2.181,39.69,0,109.9,13.5,1.73,259.6
"2010-01-27 00:02:00",1627483,1.696,306.7,8.81,1.257,2.176,100.6352,0.92,2.241,39.94,0,109.9,13.47,1.68,268.7
"2010-01-27 00:02:30",1627484,0.917,305.2,7.81,0.963,0.641,100.6335,0.916,2.057,39.82,0,109.8,13.47,1.67,267.2
"2010-01-27 00:03:00",1627485,1.553,309.1,8.35,1.258,2.204,100.6104,0.857,2.183,39.98,0,109.8,13.47,1.61,271.1
"2010-01-27 00:03:30",1627486,1.225,270.7,14.48,1.261,1.852,100.6053,0.844,1.999,39.84,0,109.8,13.47,1.60,232.7
"2010-01-27 00:04:00",1627487,1.368,268.3,13.48,1.259,2.378,100.5779,0.774,2.084,40.08,0,109.8,13.48,1.53,230.3
"2010-01-27 00:04:30",1627488,0.536,262.8,7.173,0.088,0.778,100.5674,0.747,1.941,40.28,0,109.8,13.51,1.50,224.8
"2010-01-27 00:05:00",1627489,1.718,269.6,14.38,1.225,2.081,100.5428,0.685,1.936,40.63,0,109.8,13.48,1.44,231.6
"2010-01-27 00:05:30",1627490,2.096,275.7,10.75,1.273,2.839,100.5211,0.629,1.967,41.01,0,109.8,13.48,1.38,237.7
"2010-01-27 00:06:00",1627491,1.823,279.8,5.874,1.167,1.795,100.5086,0.597,1.786,41.23,0,109.8,13.48,1.35,241.8
"2010-01-27 00:06:30",1627492,2.717,274.4,7.832,1.154,3.763,100.5019,0.58,1.928,41.59,0,109.8,13.48,1.33,236.4
"2010-01-27 00:07:00",1627493,2.059,279.2,22.7,1.281,3.283,100.4776,0.518,1.961,41.81,0,109.8,13.49,1.27,241.2
"2010-01-27 00:07:30",1627494,1.611,291.4,10.18,1.171,2.168,100.4745,0.51,1.793,41.68,0,109.8,13.49,1.26,253.4
"2010-01-27 00:08:00",1627495,0.588,275.6,4.747,0.057,0.736,100.4535,0.457,1.637,41.54,0,109.8,13.53,1.21,237.6
"2010-01-27 00:08:30",1627496,1.409,279.6,5.808,1.226,2.026,100.4411,0.425,1.61,41.62,0,109.8,13.49,1.18,241.6
"2010-01-27 00:09:00",1627497,1.369,284,8.53,1.211,2.791,100.4397,0.422,1.734,41.81,0,109.8,13.5,1.18,246.0
"2010-01-27 00:09:30",1627498,0.822,281.1,2.871,0.669,0.627,100.4208,0.373,1.539,41.66,0,109.8,13.5,1.13,243.1
"2010-01-27 00:10:00",1627499,0.912,283.9,4.314,0.809,0.784,100.4251,0.384,1.575,41.77,0,109.8,13.5,1.14,245.9
"2010-01-27 00:10:30",1627500,2.536,300.4,5.467,1.134,4.271,100.4158,0.361,1.771,42.01,0,109.8,13.5,1.11,262.4
"2010-01-27 00:11:00",1627501,1.844,303,5.022,1.188,2.432,100.4036,0.33,1.613,41.91,0,109.8,13.5,1.08,265.0
"2010-01-27 00:11:30",1627502,1.779,310.5,5.777,1.224,1.975,100.4051,0.333,1.534,41.82,0,109.8,13.51,1.09,272.5
"2010-01-27 00:12:00",1627503,0.656,308.2,0.983,0.019,-0.09,100.3839,0.279,1.466,41.8,0,109.8,13.54,1.03,270.2
"2010-01-27 00:12:30",1627504,0.758,312.1,4.383,0.463,0.168,100.3731,0.252,1.499,41.92,0,109.8,13.54,1.00,274.1
"2010-01-27 00:13:00",1627505,1.831,319.7,6.971,1.242,1.726,100.3678,0.238,1.418,41.97,0,109.8,13.51,0.99,281.7
"2010-01-27 00:13:30",1627506,0.841,318.8,1.602,0.046,0.321,100.3429,0.175,1.441,42.24,0,109.8,13.54,0.93,280.8
"2010-01-27 00:14:00",1627507,2.651,328.3,6.297,1.226,3.69,100.3392,0.165,1.562,42.53,0,109.7,13.51,0.92,290.3
"2010-01-27 00:14:30",1627508,3.263,336,5.536,0.954,4.579,100.3254,0.13,1.476,42.65,0,109.7,13.51,0.88,298.0
"2010-01-27 00:15:00",1627509,2.176,326.6,6.101,1.203,2.32,100.3056,0.08,1.392,42.76,0,109.7,13.51,0.83,288.6
"2010-01-27 00:15:30",1627510,1.054,320.4,2.728,0.055,0.434,100.3047,0.077,1.329,42.86,0,109.7,13.54,0.83,282.4
"2010-01-27 00:16:00",1627511,1.033,318.4,2.496,0.084,0.043,100.2855,0.028,1.195,42.77,0,109.7,13.54,0.78,280.4
"2010-01-27 00:16:30",1627512,2.215,321.3,7.032,1.264,2.362,100.2714,-0.008,1.337,43.13,0,109.7,13.52,0.74,283.3
"2010-01-27 00:17:00",1627513,1.16,314,4.552,0.677,1.384,100.2719,-0.006,1.279,43.26,0,109.7,13.52,0.75,276.0
"2010-01-27 00:17:30",1627514,2.922,321.9,6.114,1.038,4.507,100.2632,-0.029,1.297,43.33,0,109.7,13.52,0.72,283.9
"2010-01-27 00:18:00",1627515,2.892,325.8,4.507,0.939,4.806,100.2485,-0.066,1.353,43.4,0,109.7,13.52,0.69,287.8
"2010-01-27 00:18:30",1627516,1.234,315.4,7.202,1.054,1.682,100.2511,-0.059,1.227,43.31,0,109.7,13.51,0.69,277.4
"2010-01-27 00:19:00",1627517,0.877,321.4,5.646,0.928,0.303,100.2536,-0.053,1.05,43.1,0,109.7,13.51,0.70,283.4
"2010-01-27 00:19:30",1627518,0.368,319.2,2.996,0.022,-0.478,100.2389,-0.09,1.029,43.11,0,109.7,13.55,0.66,281.2
"2010-01-27 00:20:00",1627519,0.438,331.9,2.596,0.063,-0.234,100.2304,-0.112,1.012,43.12,0,109.7,13.55,0.64,293.9
"2010-01-27 00:20:30",1627520,1.343,343.3,11.74,1.125,2.064,100.2304,-0.112,1.145,43.27,0,109.7,13.52,0.64,305.3
"2010-01-27 00:21:00",1627521,2.19,352.1,7.862,1.203,3.52,100.2344,-0.102,1.13,43.3,0,109.8,13.52,0.65,314.1
"2010-01-27 00:21:30",1627522,1.705,355.3,8.93,1.322,3.836,100.2248,-0.126,1.199,43.37,0,109.7,13.52,0.63,317.3
"2010-01-27 00:22:00",1627523,2.409,355.3,7.742,1.055,4.639,100.2064,-0.173,1.158,43.36,0,109.7,13.52,0.58,317.3
"2010-01-27 00:22:30",1627524,1.567,354.4,8.65,1.165,2.458,100.2036,-0.18,1.03,43.23,0,109.7,13.52,0.57,316.4
"2010-01-27 00:23:00",1627525,0.786,342.5,2.14,0.039,-0.523,100.2036,-0.18,0.924,43.06,0,109.7,13.56,0.57,304.5
"2010-01-27 00:23:30",1627526,0.632,335.1,4.044,0.071,-0.732,100.1928,-0.208,0.871,42.95,0,109.7,13.56,0.54,297.1
"2010-01-27 00:24:00",1627527,0.573,326.6,1.93,0.015,-0.385,100.1702,-0.266,0.883,42.89,0,109.7,13.56,0.49,288.6
"2010-01-27 00:24:30",1627528,1.679,327.8,6.394,1.238,1.705,100.1697,-0.267,0.896,43.06,0,109.7,13.54,0.48,289.8
"2010-01-27 00:25:00",1627529,3.101,329.3,6.033,1.033,3.956,100.1702,-0.266,1.07,43.29,0,109.7,13.54,0.49,291.3
"2010-01-27 00:25:30",1627530,3.378,335.6,6.79,0.788,5.679,100.1535,-0.308,1.155,43.27,0,109.7,13.54,0.44,297.6
"2010-01-27 00:26:00",1627531,2.547,343,6.173,1.207,4.269,100.138,-0.348,1.026,43.35,0,109.7,13.54,0.40,305.0
"2010-01-27 00:26:30",1627532,0.859,328.1,2.516,0.077,0.143,100.1439,-0.333,0.791,43.34,0,109.7,13.57,0.42,290.1
"2010-01-27 00:27:00",1627533,0.806,329.5,1.839,0.049,-0.302,100.1456,-0.328,0.764,43.41,0,109.7,13.57,0.42,291.5
"2010-01-27 00:27:30",1627534,0.79,330.4,3.388,0.061,-0.241,100.1352,-0.355,0.761,43.4,0,109.6,13.57,0.40,292.4
"2010-01-27 00:28:00",1627535,0.583,344.5,8.1,0.124,0.524,100.1273,-0.375,0.743,43.44,0,109.6,13.57,0.38,306.5
"2010-01-27 00:28:30",1627536,1.805,356.8,10.06,1.305,3.514,100.1293,-0.37,0.924,43.7,0,109.7,13.55,0.38,318.8
"2010-01-27 00:29:00",1627537,2.263,9.33,16.49,0.813,5.46,100.1245,-0.382,0.953,43.91,0,109.6,13.55,0.37,331.3
"2010-01-27 00:29:30",1627538,1.926,11.19,13.08,1.02,4.932,100.1055,-0.431,0.91,44.05,0,109.7,13.55,0.32,333.2
"2010-01-27 00:30:00",1627539,1.369,20.93,17.13,1.137,1.427,100.1018,-0.44,0.755,43.94,0,109.6,13.55,0.31,342.9
"2010-01-27 00:30:30",1627540,0.736,25.86,4.074,0.11,-1.258,100.1018,-0.44,0.647,43.96,0,109.6,13.58,0.31,347.9
"2010-01-27 00:31:00",1627541,0.706,24.12,5.416,0.137,-1.132,100.1018,-0.44,0.62,44.36,0,109.6,13.58,0.31,346.1
"2010-01-27 00:31:30",1627542,0.797,18.52,6.815,0.128,-0.65,100.097,-0.452,0.619,44.69,0,109.6,13.59,0.30,340.5
"2010-01-27 00:32:00",1627543,0.664,354.5,11.53,0.474,0.213,100.069,-0.524,0.597,44.84,0,109.6,13.55,0.23,316.5
"2010-01-27 00:32:30",1627544,1.492,337.7,6.867,1.261,3.38,100.0679,-0.527,0.796,44.93,0,109.6,13.56,0.22,299.7
"2010-01-27 00:33:00",1627545,2.565,330.1,3.754,0.78,5.046,100.0679,-0.527,0.876,44.74,0,109.6,13.55,0.22,292.1
"2010-01-27 00:33:30",1627546,2.274,317.1,7.992,1.007,4.626,100.0639,-0.537,0.874,44.52,0,109.6,13.55,0.21,279.1
"2010-01-27 00:34:00",1627547,0.619,297.3,4.574,0.745,0.985,100.0478,-0.578,0.639,44.16,0,109.6,13.55,0.17,259.3
"2010-01-27 00:34:30",1627548,0.417,297.4,2.067,0.082,-0.583,100.0345,-0.612,0.526,44.07,0,109.6,13.59,0.14,259.4
"2010-01-27 00:35:00",1627549,0.573,291.4,5.068,0.044,-0.534,100.0354,-0.609,0.513,44.23,0,109.6,13.59,0.14,253.4
"2010-01-27 00:35:30",1627550,0.7,281,2.83,0.053,0.11,100.0331,-0.615,0.482,44.43,0,109.6,13.59,0.13,243.0
"2010-01-27 00:36:00",1627551,1.513,302.3,8.9,1.225,1.989,100.015,-0.661,0.483,44.5,0,109.6,13.55,0.09,264.3
"2010-01-27 00:36:30",1627552,1.447,313,9.82,1.198,2.488,100.0088,-0.677,0.586,44.59,0,109.6,13.56,0.07,275.0
"2010-01-27 00:37:00",1627553,2.166,331.4,15.02,1.133,4.217,100.0144,-0.663,0.714,44.73,0,109.6,13.56,0.09,293.4
"2010-01-27 00:37:30",1627554,2.411,17.52,24.84,0.913,4.431,100.0201,-0.648,0.711,44.77,0,109.6,13.56,0.10,339.5
"2010-01-27 00:38:00",1627555,1.308,20.33,14.79,1.323,2.214,100.0221,-0.643,0.514,44.71,0,109.6,13.56,0.11,342.3
"2010-01-27 00:38:30",1627556,0.453,48.78,8.72,0.174,-1.195,100.0054,-0.686,0.394,44.82,0,109.6,13.59,0.06,10.8
"2010-01-27 00:39:00",1627557,0.697,34.41,6.738,0.151,-1.113,99.99377,-0.715,0.375,45.25,0,109.6,13.59,0.03,356.4
"2010-01-27 00:39:30",1627558,0.524,51.65,6.132,0.082,-0.44,99.9966,-0.708,0.374,45.51,0,109.6,13.6,0.04,13.7
"2010-01-27 00:40:00",1627559,1.465,69,9.73,1.235,2.385,99.99575,-0.71,0.483,45.63,0,109.6,13.57,0.04,31.0
"2010-01-27 00:40:30",1627560,0.834,37.86,8.53,0.831,1.579,99.97142,-0.772,0.489,45.64,0,109.6,13.57,-0.02,359.9
"2010-01-27 00:41:00",1627561,2.471,38.09,6.319,1.063,4.931,99.96575,-0.787,0.568,45.81,0,109.6,13.57,-0.04,0.1
"2010-01-27 00:41:30",1627562,2.658,42.67,6.789,0.85,4.368,99.96604,-0.786,0.615,45.84,0,109.6,13.58,-0.04,4.7
"2010-01-27 00:42:00",1627563,1.755,36.75,7.972,1.259,2.098,99.9601,-0.801,0.387,45.73,0,109.6,13.57,-0.05,358.8
"2010-01-27 00:42:30",1627564,0.711,27.62,3.697,0.043,-0.356,99.93803,-0.858,0.27,45.74,0,109.6,13.6,-0.11,349.6
"2010-01-27 00:43:00",1627565,0.871,24.08,4.36,0.099,-0.333,99.93209,-0.873,0.261,45.71,0,109.6,13.61,-0.12,346.1
"2010-01-27 00:43:30",1627566,1.838,34.19,6.574,1.194,2.012,99.93209,-0.873,0.325,45.76,0,109.6,13.58,-0.12,356.2
"2010-01-27 00:44:00",1627567,1.175,31.87,4.239,0.905,1.274,99.92359,-0.894,0.331,45.75,0,109.6,13.58,-0.15,353.9
"2010-01-27 00:44:30",1627568,2.892,44.02,5.563,0.936,5.019,99.90096,-0.952,0.48,45.92,0,109.6,13.58,-0.20,6.0
"2010-01-27 00:45:00",1627569,2.8,46.6,5.892,0.961,4.413,99.89812,-0.959,0.434,45.99,0,109.5,13.58,-0.21,8.6
"2010-01-27 00:45:30",1627570,1.134,43.76,6.895,0.901,1.247,99.89812,-0.959,0.375,46.06,0,109.5,13.58,-0.21,5.8
"2010-01-27 00:46:00",1627571,1.205,51.58,5.105,1.209,1.144,99.88596,-0.99,0.15,45.88,0,109.5,13.58,-0.24,13.6
"2010-01-27 00:46:30",1627572,0.309,58.97,3.602,0.026,-0.376,99.87436,-1.02,0.136,45.89,0,109.5,13.62,-0.27,21.0
"2010-01-27 00:47:00",1627573,0.727,52.3,4.605,0.192,-0.41,99.87096,-1.029,0.114,45.89,0,109.5,13.62,-0.28,14.3
"2010-01-27 00:47:30",1627574,2.138,60.65,5.884,1.214,2.033,99.87717,-1.013,0.14,46.3,0,109.5,13.58,-0.26,22.7
"2010-01-27 00:48:00",1627575,2.817,69.56,5.982,1.228,3.929,99.88028,-1.005,0.303,46.77,0,109.5,13.59,-0.26,31.6
"2010-01-27 00:48:30",1627576,3.164,68.1,5.627,1.009,4.213,99.86442,-1.045,0.345,47.08,0,109.5,13.59,-0.30,30.1
"2010-01-27 00:49:00",1627577,3.285,65.28,5.916,1.029,3.961,99.85649,-1.065,0.305,47.25,0,109.5,13.59,-0.32,27.3
"2010-01-27 00:49:30",1627578,2.067,56.67,4.81,1.064,0.85,99.86158,-1.052,0.1,47.31,0,109.5,13.58,-0.30,18.7
"2010-01-27 00:50:00",1627579,1.538,54.04,0.833,0.054,0.209,99.86356,-1.047,0.053,47.43,0,109.5,13.62,-0.30,16.0
"2010-01-27 00:50:30",1627580,1.899,52.38,4.71,0.873,1.441,99.86185,-1.052,0.166,47.65,0,109.5,13.59,-0.30,14.4
"2010-01-27 00:51:00",1627581,3.369,55.01,6.232,1.121,3.968,99.84912,-1.084,0.18,47.74,0,109.5,13.58,-0.34,17.0
"2010-01-27 00:51:30",1627582,3.353,59.72,8.29,0.987,4.697,99.84232,-1.102,0.233,47.85,0,109.5,13.58,-0.35,21.7
"2010-01-27 00:52:00",1627583,2.682,60.28,7.985,1.277,3.494,99.83157,-1.129,0.267,47.96,0,109.5,13.58,-0.38,22.3
"2010-01-27 00:52:30",1627584,2.153,63.1,5.514,1.232,2.375,99.83016,-1.133,0.188,47.9,0,109.5,13.58,-0.38,25.1
"2010-01-27 00:53:00",1627585,2.164,62.13,5.477,1.233,1.479,99.83016,-1.133,-0.027,47.68,0,109.5,13.58,-0.38,24.1
"2010-01-27 00:53:30",1627586,1.043,67.11,2.979,0.052,0.706,99.83016,-1.133,-0.004,47.76,0,109.5,13.62,-0.38,29.1
"2010-01-27 00:54:00",1627587,2.606,73.81,7.747,1.196,3.13,99.8279,-1.138,-0.012,47.81,0,109.5,13.58,-0.39,35.8
"2010-01-27 00:54:30",1627588,2.378,78.96,6.456,1.265,3.651,99.8177,-1.164,0.151,48.04,0,109.5,13.58,-0.42,41.0
"2010-01-27 00:55:00",1627589,2.06,85.8,10.82,1.251,3.304,99.81176,-1.179,0.131,48.09,0,109.5,13.59,-0.43,47.8
"2010-01-27 00:55:30",1627590,2.478,92.6,5.704,1.173,4.705,99.80186,-1.205,0.112,48.15,0,109.5,13.59,-0.46,54.6
"2010-01-27 00:56:00",1627591,2.59,91.8,7.627,1.144,4.217,99.79648,-1.218,-0.002,48.1,0,109.5,13.59,-0.47,53.8
"2010-01-27 00:56:30",1627592,0.864,86.3,2.19,0.09,1.125,99.79619,-1.219,-0.028,48.16,0,109.5,13.62,-0.47,48.3
"2010-01-27 00:57:00",1627593,0.918,77.22,6.794,0.129,0.433,99.79619,-1.219,-0.057,48.19,0,109.5,13.63,-0.47,39.2
"2010-01-27 00:57:30",1627594,2.24,74.63,8.49,1.224,2.289,99.79619,-1.219,-0.012,48.25,0,109.5,13.6,-0.47,36.6
"2010-01-27 00:58:00",1627595,3.171,74.32,6.016,1.062,4.13,99.79619,-1.219,0.096,48.33,0,109.5,13.6,-0.47,36.3
"2010-01-27 00:58:30",1627596,1.679,61.63,4.314,0.948,1.551,99.79619,-1.219,-0.005,48.18,0,109.5,13.6,-0.47,23.6
"2010-01-27 00:59:00",1627597,2.419,62.15,6.459,1.238,2.735,99.79619,-1.219,0.091,48.28,0,109.5,13.6,-0.47,24.2
"2010-01-27 00:59:30",1627598,2.734,56.16,8.08,1.153,2.668,99.79619,-1.219,0.068,48.34,0,109.5,13.6,-0.47,18.2
"2010-01-27 01:00:00",1627599,1.566,41.15,1.013,0.079,-0.147,99.79704,-1.217,-0.092,48.21,0,109.5,13.64,-0.47,3.2
"2010-01-27 01:00:30",1627600,3.294,46.02,6.487,1.265,1.851,99.79733,-1.216,0.019,47.91,0,109.5,13.6,-0.47,8.0
"2010-01-27 01:01:00",1627601,3.417,46.8,6.573,1.244,2.259,99.79845,-1.213,0.032,47.09,0,109.5,13.6,-0.47,8.8
"2010-01-27 01:01:30",1627602,3.953,48.05,6.388,1.094,3.648,99.80184,-1.205,0.085,46.69,0,109.5,13.6,-0.46,10.0
"2010-01-27 01:02:00",1627603,3.24,45.9,5.755,1.264,2.496,99.80637,-1.193,0.006,46.68,0,109.5,13.6,-0.45,7.9
"2010-01-27 01:02:30",1627604,3.327,51.37,5.771,1.101,3.641,99.80721,-1.191,0.078,47.29,0,109.5,13.6,-0.44,13.4
"2010-01-27 01:03:00",1627605,1.84,44.7,4.428,0.963,0.587,99.80522,-1.196,-0.138,47.56,0,109.5,13.6,-0.45,6.7
"2010-01-27 01:03:30",1627606,1.595,46.53,5.237,0.751,0.986,99.80295,-1.202,-0.013,47.99,0,109.5,13.6,-0.45,8.5
"2010-01-27 01:04:00",1627607,2.64,47.03,8.34,1.232,2.548,99.79247,-1.229,-0.06,48.2,0,109.5,13.6,-0.48,9.0
"2010-01-27 01:04:30",1627608,3.252,44.41,6.868,1.13,3.324,99.78934,-1.237,0.035,48.32,0,109.5,13.61,-0.49,6.4
"2010-01-27 01:05:00",1627609,2.989,38.46,5.976,1.242,2.494,99.78793,-1.24,0.056,47.91,0,109.5,13.61,-0.49,0.5
"2010-01-27 01:05:30",1627610,3.653,40.19,6.365,1.189,3.245,99.78764,-1.241,0.061,47.33,0,109.5,13.61,-0.49,2.2
"2010-01-27 01:06:00",1627611,3.611,39.91,5.96,1.085,2.591,99.78878,-1.238,0.064,47.05,0,109.5,13.61,-0.49,1.9
"2010-01-27 01:06:30",1627612,4.124,43.2,5.964,1.134,2.947,99.79076,-1.233,-0.013,46.79,0,109.5,13.61,-0.49,5.2
"2010-01-27 01:07:00",1627613,4.706,46.6,6.153,1.048,4.11,99.78991,-1.235,0.047,46.84,0,109.5,13.61,-0.49,8.6
"2010-01-27 01:07:30",1627614,4.401,49.65,5.382,1.108,3.887,99.78793,-1.24,0.01,46.8,0,109.5,13.6,-0.49,11.7
"2010-01-27 01:08:00",1627615,3.327,43.98,5.775,1.139,1.896,99.77885,-1.263,-0.045,46.79,0,109.5,13.6,-0.52,6.0
"2010-01-27 01:08:30",1627616,3.71,51.93,6.297,1.151,3.421,99.76866,-1.289,0.012,47.12,0,109.5,13.6,-0.54,13.9
"2010-01-27 01:09:00",1627617,3.477,53.06,7.603,1.188,3.014,99.76215,-1.306,-0.065,47.52,0,109.5,13.6,-0.56,15.1
"2010-01-27 01:09:30",1627618,1.802,45.92,2.733,0.141,0.496,99.76214,-1.306,-0.174,47.8,0,109.5,13.63,-0.56,7.9
"2010-01-27 01:10:00",1627619,3.827,53.4,5.931,1.213,3.802,99.76186,-1.307,0.002,48.16,0,109.5,13.6,-0.56,15.4
"2010-01-27 01:10:30",1627620,4.767,52.36,5.477,1.089,4.003,99.76214,-1.306,0.024,47.87,0,109.5,13.6,-0.56,14.4
"2010-01-27 01:11:00",1627621,4.301,47.02,6.437,1.217,2.391,99.76214,-1.306,-0.092,47.28,0,109.5,13.6,-0.56,9.0
"2010-01-27 01:11:30",1627622,4.914,46.68,5.505,1.06,3.473,99.76214,-1.306,-0.006,47.12,0,109.5,13.6,-0.56,8.7
"2010-01-27 01:12:00",1627623,4.975,45.22,6.055,1.109,3.568,99.76214,-1.306,-0.096,46.89,0,109.5,13.6,-0.56,7.2
"2010-01-27 01:12:30",1627624,4.688,44.76,6.343,1.173,3.11,99.76214,-1.306,-0.026,47.05,0,109.5,13.61,-0.56,6.8
"2010-01-27 01:13:00",1627625,4.91,49.36,5.42,1.055,4.376,99.76214,-1.306,-0.057,47.21,0,109.5,13.61,-0.56,11.4
"2010-01-27 01:13:30",1627626,4.206,49.79,6.502,1.167,3.632,99.76214,-1.306,-0.025,47.5,0,109.5,13.61,-0.56,11.8
"2010-01-27 01:14:00",1627627,3.372,47.47,6.032,1.122,2.223,99.76214,-1.306,-0.08,47.73,0,109.5,13.61,-0.56,9.5
"2010-01-27 01:14:30",1627628,3.946,51.8,5.903,1.135,3.742,99.76214,-1.306,-0.01,48.02,0,109.5,13.61,-0.56,13.8
"2010-01-27 01:15:00",1627629,3.107,46.94,5.403,1.21,1.626,99.76214,-1.306,-0.256,47.98,0,109.5,13.61,-0.56,8.9
"2010-01-27 01:15:30",1627630,3.172,49.68,5.907,1.149,3.314,99.76214,-1.306,-0.075,48.31,0,109.5,13.61,-0.56,11.7
"2010-01-27 01:16:00",1627631,3.202,48.89,6.509,1.258,3.368,99.76214,-1.306,-0.042,48.46,0,109.5,13.61,-0.56,10.9
"2010-01-27 01:16:30",1627632,2.919,46.81,6.723,1.217,3.07,99.76214,-1.306,-0.055,48.54,0,109.5,13.61,-0.56,8.8
"2010-01-27 01:17:00",1627633,2.315,40.89,6.221,1.094,1.396,99.76214,-1.306,-0.216,48.49,0,109.5,13.62,-0.56,2.9
"2010-01-27 01:17:30",1627634,3.557,46.8,4.777,0.848,4.126,99.76214,-1.306,-0.101,48.63,0,109.5,13.62,-0.56,8.8
"2010-01-27 01:18:00",1627635,1.565,38.52,3.102,0.241,0.523,99.76214,-1.306,-0.141,48.61,0,109.5,13.62,-0.56,0.5
"2010-01-27 01:18:30",1627636,3.872,51.51,3.246,0.611,4.376,99.76214,-1.306,-0.104,48.47,0,109.5,13.62,-0.56,13.5
"2010-01-27 01:19:00",1627637,3.351,49.12,5.744,1.123,3.793,99.76243,-1.305,-0.037,48.29,0,109.5,13.62,-0.56,11.1
"2010-01-27 01:19:30",1627638,3.323,50.34,6.182,1.169,3.193,99.76214,-1.306,-0.047,48.15,0,109.5,13.62,-0.56,12.3
"2010-01-27 01:20:00",1627639,2.602,48.33,6.164,1.176,1.842,99.76214,-1.306,-0.122,48.09,0,109.5,13.62,-0.56,10.3
"2010-01-27 01:20:30",1627640,2.154,45.9,4.335,0.676,0.719,99.7627,-1.304,-0.139,48.1,0,109.5,13.62,-0.56,7.9
"2010-01-27 01:21:00",1627641,2.774,46.32,4.954,1.086,1.584,99.76299,-1.304,-0.107,48.07,0,109.5,13.62,-0.56,8.3
"2010-01-27 01:21:30",1627642,3.931,48.32,6.064,1.16,3.037,99.76186,-1.307,-0.119,47.93,0,109.5,13.62,-0.56,10.3
"2010-01-27 01:22:00",1627643,3.88,45.63,6.577,1.186,3.804,99.76073,-1.31,-0.021,47.87,0,109.5,13.62,-0.56,7.6
"2010-01-27 01:22:30",1627644,3.566,40.1,6.75,1.171,3.727,99.75648,-1.32,-0.042,47.72,0,109.5,13.62,-0.57,2.1
"2010-01-27 01:23:00",1627645,2.835,29.04,6.643,1.168,2.124,99.75449,-1.325,-0.189,47.39,0,109.5,13.62,-0.58,351.0
"2010-01-27 01:23:30",1627646,2.491,30.25,7.045,1.104,1.567,99.75137,-1.333,-0.142,47.83,0,109.5,13.62,-0.59,352.2
"2010-01-27 01:24:00",1627647,2.4,25.06,5.222,1.095,0.517,99.74938,-1.338,-0.274,47.99,0,109.5,13.62,-0.59,347.1
"2010-01-27 01:24:30",1627648,2.808,28.5,8.01,1.13,1.959,99.74626,-1.346,-0.073,48.07,0,109.5,13.62,-0.60,350.5
"2010-01-27 01:25:00",1627649,3.934,40.81,3.963,0.691,4.853,99.74427,-1.351,0.024,47.84,0,109.5,13.62,-0.60,2.8
"2010-01-27 01:25:30",1627650,3.33,45.75,6.644,1.076,3.769,99.74342,-1.354,-0.089,47.75,0,109.5,13.62,-0.61,7.8
"2010-01-27 01:26:00",1627651,2.142,51.1,6.2,1.132,1.872,99.74426,-1.351,-0.155,47.9,0,109.5,13.62,-0.60,13.1
"2010-01-27 01:26:30",1627652,0.971,56.42,3.077,0.042,0.109,99.74483,-1.35,-0.233,48.09,0,109.5,13.65,-0.60,18.4
"2010-01-27 01:27:00",1627653,1.024,65.18,1.95,0.072,-0.134,99.74681,-1.345,-0.293,48.17,0,109.5,13.65,-0.60,27.2
"2010-01-27 01:27:30",1627654,2.249,67.06,6.892,1.215,2.055,99.74766,-1.343,-0.142,48.36,0,109.5,13.62,-0.60,29.1
"2010-01-27 01:28:00",1627655,2.182,59.58,4.455,1.204,2.182,99.7502,-1.336,-0.138,48.4,0,109.5,13.63,-0.59,21.6
"2010-01-27 01:28:30",1627656,3.149,56.35,6.328,1.041,3.719,99.7519,-1.332,-0.065,48.51,0,109.5,13.63,-0.58,18.3
"2010-01-27 01:29:00",1627657,3.07,53.58,5.792,1.179,3.724,99.75217,-1.331,-0.069,48.47,0,109.5,13.63,-0.58,15.6
"2010-01-27 01:29:30",1627658,2.522,46.48,5.53,1.195,1.979,99.75416,-1.326,-0.171,48.3,0,109.5,13.63,-0.58,8.5
"2010-01-27 01:30:00",1627659,1.492,36.45,1.305,0.052,0.029,99.7533,-1.328,-0.294,48.17,0,109.5,13.66,-0.58,358.5
"2010-01-27 01:30:30",1627660,1.334,33.48,1.471,0.091,-0.04,99.75246,-1.331,-0.263,48.25,0,109.5,13.67,-0.58,355.5
"2010-01-27 01:31:00",1627661,3.011,39.65,6.014,1.172,3.358,99.74622,-1.346,-0.129,48.41,0,109.5,13.63,-0.60,1.7
"2010-01-27 01:31:30",1627662,3.245,39.65,4.86,0.898,4.571,99.73716,-1.37,-0.047,48.63,0,109.5,13.64,-0.62,1.7
"2010-01-27 01:32:00",1627663,2.84,38.74,6.248,1.126,4.004,99.7346,-1.376,-0.06,48.7,0,109.5,13.64,-0.63,0.7
"2010-01-27 01:32:30",1627664,1.476,31.26,5.243,1.126,1.811,99.73035,-1.387,-0.172,48.68,0,109.5,13.63,-0.64,353.3
"2010-01-27 01:33:00",1627665,1.608,25.88,6.251,0.98,0.818,99.7244,-1.402,-0.294,48.59,0,109.5,13.63,-0.66,347.9
"2010-01-27 01:33:30",1627666,1.08,20.77,1.573,0.06,-0.38,99.72553,-1.399,-0.322,48.55,0,109.5,13.67,-0.65,342.8
"2010-01-27 01:34:00",1627667,1.151,20.19,1.551,0.049,-0.353,99.72694,-1.396,-0.339,48.52,0,109.5,13.67,-0.65,342.2
"2010-01-27 01:34:30",1627668,1.955,28.5,7.591,1.124,1.793,99.72722,-1.395,-0.23,48.61,0,109.5,13.64,-0.65,350.5
"2010-01-27 01:35:00",1627669,3.349,39.37,5.167,0.875,4.343,99.72637,-1.397,-0.073,48.7,0,109.5,13.64,-0.65,1.4
"2010-01-27 01:35:30",1627670,3.366,37.47,5.769,0.927,4.039,99.72807,-1.393,-0.1,48.62,0,109.5,13.64,-0.65,359.5
"2010-01-27 01:36:00",1627671,2.627,39.05,6.396,1.228,2.122,99.72807,-1.393,-0.218,48.58,0,109.5,13.64,-0.65,1.0
"2010-01-27 01:36:30",1627672,1.079,37,2.136,0.076,-0.312,99.72807,-1.393,-0.257,48.62,0,109.5,13.67,-0.65,359.0
"2010-01-27 01:37:00",1627673,0.906,43.72,1.737,0.037,-0.294,99.72694,-1.396,-0.356,48.67,0,109.5,13.67,-0.65,5.7
"2010-01-27 01:37:30",1627674,1.477,50.77,5.68,1.081,1.093,99.71986,-1.414,-0.329,48.85,0,109.5,13.64,-0.67,12.8
"2010-01-27 01:38:00",1627675,2.225,50.95,5.737,1.209,2.713,99.70853,-1.443,-0.203,49.11,0,109.4,13.64,-0.70,13.0
"2010-01-27 01:38:30",1627676,2.792,43.66,5.952,0.857,4.651,99.70059,-1.463,-0.132,49.22,0,109.5,13.64,-0.72,5.7
"2010-01-27 01:39:00",1627677,1.729,26.35,7.111,1.253,3.031,99.69691,-1.472,-0.203,49.11,0,109.5,13.64,-0.73,348.4
"2010-01-27 01:39:30",1627678,1.925,27.51,5.925,1.212,2.031,99.69578,-1.475,-0.324,48.97,0,109.5,13.64,-0.73,349.5
"2010-01-27 01:40:00",1627679,1.655,32.04,6.65,1.205,1.502,99.69408,-1.479,-0.264,48.97,0,109.5,13.64,-0.73,354.0
"2010-01-27 01:40:30",1627680,1.191,33.48,2.089,0.056,-0.53,99.69408,-1.479,-0.386,48.85,0,109.5,13.67,-0.73,355.5
"2010-01-27 01:41:00",1627681,1.339,40.21,3.901,0.503,0.23,99.69408,-1.479,-0.305,49,0,109.4,13.64,-0.73,2.2
"2010-01-27 01:41:30",1627682,3.056,49.96,5.813,0.996,3.759,99.69408,-1.479,-0.183,49.17,0,109.4,13.64,-0.73,12.0
"2010-01-27 01:42:00",1627683,3.578,50.11,3.877,0.495,4.865,99.69408,-1.479,-0.115,49.3,0,109.5,13.64,-0.73,12.1
"2010-01-27 01:42:30",1627684,2.899,40.96,5.769,1.049,4.076,99.69408,-1.479,-0.254,49.2,0,109.4,13.64,-0.73,3.0
"2010-01-27 01:43:00",1627685,1.98,34.67,6.536,1.147,1.871,99.6938,-1.48,-0.317,49.14,0,109.5,13.64,-0.73,356.7
"2010-01-27 01:43:30",1627686,0.845,28.09,2.683,0.062,-0.335,99.67879,-1.518,-0.338,49.06,0,109.5,13.67,-0.77,350.1
"2010-01-27 01:44:00",1627687,1.063,32.98,1.939,0.11,-0.592,99.66378,-1.557,-0.436,48.97,0,109.4,13.67,-0.81,355.0
"2010-01-27 01:44:30",1627688,1.838,38.37,5.286,0.974,0.97,99.66009,-1.566,-0.324,49.12,0,109.4,13.64,-0.82,0.4
"2010-01-27 01:45:00",1627689,3.191,44.44,6.118,1.132,3.25,99.66009,-1.566,-0.341,49.17,0,109.5,13.65,-0.82,6.4
"2010-01-27 01:45:30",1627690,3.253,44.83,5.446,1.041,4.258,99.66009,-1.566,-0.248,49.36,0,109.4,13.65,-0.82,6.8
"2010-01-27 01:46:00",1627691,2.85,39.29,7.448,1.075,3.983,99.66009,-1.566,-0.234,49.47,0,109.4,13.65,-0.82,1.3
"2010-01-27 01:46:30",1627692,1.818,29.29,5.562,1.183,1.961,99.66009,-1.566,-0.358,49.37,0,109.4,13.65,-0.82,351.3